Temperature
18 18 18 17 17 17 16 16 16 16 16 16 16 16 16 15 15 15 15 15 15 15 15 15 15 15 16 16 15 15 15 15 15 15 15 15 15 15 14 14 15 15 15
19 19 18 17 17 17 16 16 16 16 16 16 16 15 15 15 15 15 15 15 15 15 15 15 15 16 16 15 15 15 15 15 14 14 15 15 15 15 15 15 15 15 15
20 19 17 17 17 16 16 16 16 16 16 16 15 15 15 15 15 15 15 15 15 15 15 16 16 16 16 15 15 15 15 14 14 14 14 15 15 15 15 15 15 15 15
19 19 18 17 17 16 16 16 16 16 16 16 16 16 15 15 15 15 15 15 15 16 16 16 16 16 16 15 15 15 14 14 14 14 14 15 15 15 15 15 15 15 15
19 18 18 17 16 16 16 16 16 16 16 16 16 16 16 15 15 15 15 16 16 16 16 16 16 16 16 15 15 15 14 14 14 14 15 15 15 15 15 15 15 15 15
18 18 17 16 16 16 16 16 16 16 16 16 16 16 16 16 16 16 16 16 16 16 16 16 16 16 16 15 15 15 14 14 14 14 15 15 15 15 15 15 15 15 15
17 17 17 16 16 16 16 16 16 16 16 16 16 16 16 16 16 16 16 16 16 16 16 16 16 16 16 15 15 15 15 14 14 15 15 15 15 15 15 15 15 15 15
17 17 17 16 16 16 16 15 16 16 16 16 16 16 16 16 16 16 16 16 16 16 16 16 16 16 16 15 15 15 15 14 14 15 15 15 15 15 15 15 15 15 15
17 17 16 16 16 15 15 15 16 16 16 16 16 16 16 16 16 16 16 16 16 16 16 16 16 16 16 16 15 15 15 15 14 15 15 15 15 15 15 15 15 15 15
16 16 16 16 15 15 15 15 16 16 16 16 16 16 16 16 16 17 17 17 16 16 16 16 16 16 16 16 15 15 15 14 14 14 15 15 15 15 15 15 15 15 15
16 16 16 16 16 15 15 15 16 16 16 16 16 16 16 16 16 17 17 17 17 17 16 16 16 16 16 16 15 15 15 14 14 14 15 15 15 15 15 15 15 15 14
16 16 16 16 16 15 15 15 16 16 16 16 16 16 16 15 16 16 16 17 17 17 16 16 16 16 16 16 15 15 15 14 14 14 14 14 14 15 15 14 14 14 14
16 16 16 16 16 15 15 15 15 15 16 15 15 15 15 14 15 16 16 16 16 16 16 16 16 16 15 15 15 15 14 14 14 14 14 14 14 14 14 14 14 14 14
16 16 16 16 16 15 15 15 15 15 15 15 15 15 15 15 15 15 16 16 16 16 16 16 16 15 15 14 14 14 14 14 14 14 14 14 14 14 14 14 14 14 13
16 16 16 16 16 15 15 15 15 15 15 15 15 15 15 15 15 15 15 15 15 15 15 15 15 14 14 14 14 14 14 14 14 14 14 14 14 14 14 14 14 13 13
16 16 16 16 16 15 15 15 15 15 15 15 15 15 15 15 15 15 14 15 15 14 14 14 14 14 14 14 14 14 14 14 14 14 13 14 14 13 13 13 13 13 13
16 16 16 16 16 15 15 15 15 15 15 15 15 15 15 15 15 15 15 15 15 14 14 14 14 14 14 14 14 14 14 14 13 13 13 13 13 13 13 13 13 13 12
16 16 16 16 16 16 15 15 15 15 14 14 14 15 15 14 15 15 15 15 15 14 14 14 14 14 14 14 14 14 14 13 14 13 13 13 13 13 13 13 12 12 12
16 16 16 16 16 15 15 15 15 15 14 14 14 14 14 14 14 15 15 15 14 14 14 14 14 14 14 14 13 13 14 14 14 14 13 13 13 13 13 12 12 12 12
16 16 16 16 16 15 15 15 15 15 14 14 14 14 14 14 14 14 14 14 14 14 14 14 14 14 14 13 13 13 13 14 14 14 13 13 13 13 12 12 12 12 12
16 16 16 16 16 15 15 15 15 15 15 14 14 14 14 14 14 14 14 14 14 14 14 14 14 13 13 13 13 13 13 14 14 13 13 13 13 12 12 12 12 11 11
16 16 16 16 16 16 15 15 15 15 15 15 14 14 14 14 14 14 14 14 14 14 14 14 13 13 13 13 13 12 12 13 13 13 13 13 12 12 12 11 11 11 11
16 16 16 16 16 15 15 15 15 14 14 14 14 14 14 14 14 14 14 14 14 14 14 13 13 13 13 13 12 12 12 12 12 12 12 12 12 12 11 11 11 11 10
16 16 16 16 16 15 15 15 15 15 15 15 14 14 14 14 14 14 14 14 14 14 13 13 13 13 13 12 12 12 12 12 11 11 11 11 11 11 11 10 10 10 10
16 16 16 16 16 15 15 15 15 15 15 14 14 14 14 14 14 14 14 14 13 13 13 13 13 13 12 12 12 11 11 11 11 11 11 11 10 10 10 10 10 9 9
16 16 16 15 15 15 15 15 15 15 14 14 14 14 14 14 14 14 14 14 13 13 13 13 13 12 12 12 11 11 11 10 10 10 10 10 10 10 9 9 9 9 8
Wind_Speed
14 19 21 22 21 21 20 19 18 17 16 15 15 15 15 15 15 16 17 17 18 19 19 19 19 19 19 19 18 18 18 17 18 19 19 19 19 20 20 19 17 16 18
19 22 23 22 22 21 20 19 17 16 15 15 15 15 15 15 16 16 17 18 18 19 19 19 19 19 18 18 17 16 15 14 13 14 18 19 19 19 19 19 18 16 18
21 23 23 23 22 21 20 19 17 16 15 15 14 14 15 16 16 16 17 18 18 19 19 18 18 18 17 17 16 15 12 10 8 8 13 17 18 18 18 18 18 18 18
21 23 22 23 22 21 20 18 17 16 15 14 14 14 15 16 16 17 17 18 18 18 18 17 17 17 16 16 15 13 11 11 12 14 16 17 16 17 17 17 17 17 17
19 22 23 23 22 21 20 18 17 16 15 14 14 14 15 16 16 16 17 18 17 17 17 16 16 16 16 15 13 11 10 11 12 17 17 17 15 16 16 16 16 16 16
17 22 24 23 22 21 20 18 17 16 15 14 14 14 15 16 17 17 17 17 16 16 15 15 15 15 14 13 11 10 10 12 13 17 17 16 14 14 15 15 15 15 15
17 21 23 22 22 21 19 18 17 16 15 14 14 15 16 17 17 16 16 16 15 14 14 14 14 14 13 12 10 9 11 12 15 17 17 15 13 13 14 14 14 14 14
17 20 21 22 21 20 19 18 16 16 15 14 14 16 16 16 16 16 15 15 14 14 13 13 13 13 12 10 8 8 9 10 11 15 16 13 12 12 12 12 12 12 13
17 17 18 19 20 20 19 18 16 15 15 14 15 17 17 16 16 15 14 13 13 13 12 12 12 11 10 8 6 5 6 7 7 11 12 12 11 11 10 10 10 11 11
16 15 15 18 18 17 17 18 17 16 15 15 16 18 17 16 15 14 13 13 12 11 11 10 10 9 8 6 3 2 5 6 3 10 12 10 9 9 8 8 8 9 9
14 14 14 14 16 17 17 17 17 16 15 16 16 18 17 15 14 13 13 12 11 11 10 9 8 7 6 5 2 2 6 4 6 10 10 8 7 6 6 6 6 7 7
12 12 12 12 13 16 16 16 15 13 15 14 15 15 13 13 14 14 15 12 11 10 9 8 7 7 7 7 6 5 7 5 4 8 9 8 5 3 3 3 3 4 4
11 11 11 11 12 13 12 13 12 12 13 13 17 16 11 12 14 13 12 11 10 10 9 8 8 9 10 8 8 8 6 2 2 5 9 8 5 3 2 2 2 2 2
11 11 10 10 9 11 12 10 10 10 9 9 14 14 10 8 9 10 10 12 12 11 11 10 10 11 7 5 6 5 2 1 1 4 9 9 7 5 4 4 4 4 3
10 11 10 10 10 9 8 7 8 8 8 9 11 12 10 7 5 7 7 9 9 9 10 8 8 5 4 4 4 2 1 3 3 3 6 9 9 8 7 7 7 6 6
10 10 9 10 9 8 7 5 5 8 9 10 9 9 11 9 7 5 5 6 6 6 6 6 5 3 3 2 2 2 4 5 5 5 6 9 11 11 10 9 9 9 9
10 10 9 10 9 9 8 7 6 8 9 8 10 10 10 9 8 6 3 4 5 6 6 4 3 2 1 1 2 5 5 5 5 6 7 9 10 12 13 12 11 10 10
9 10 10 9 9 9 8 7 6 8 8 8 11 11 11 10 10 8 4 4 6 7 5 3 2 2 2 2 3 4 3 4 5 8 8 8 9 10 12 13 12 11 10
8 9 10 9 9 9 7 6 6 7 7 8 10 9 10 10 10 8 5 5 7 5 3 3 3 2 2 3 3 3 3 3 5 7 7 8 7 7 8 9 11 11 10
7 8 10 9 8 8 7 5 4 4 4 6 7 8 10 9 10 8 6 6 6 3 3 3 3 3 3 3 3 3 4 5 5 5 6 6 5 5 5 5 6 7 7
7 8 9 9 9 7 6 6 5 5 4 3 4 7 9 9 10 8 5 5 4 3 4 4 4 4 4 2 2 3 5 7 7 5 4 3 2 2 2 2 2 1 1
8 8 8 9 9 9 7 6 5 5 4 4 4 6 7 7 7 7 5 3 3 3 4 4 3 3 3 3 3 2 3 4 3 4 2 2 1 2 3 3 4 4 4
8 8 8 8 8 8 8 6 5 4 3 3 4 4 5 7 7 6 5 4 3 3 4 4 3 4 4 3 4 4 3 3 2 2 0 2 2 2 2 4 5 5 5
7 7 7 7 7 8 8 8 7 6 5 5 4 4 4 5 4 4 4 3 2 2 2 3 3 3 4 4 3 4 4 3 2 2 1 0 2 2 3 3 5 6 6
8 7 6 7 7 7 8 9 8 6 5 4 4 5 5 4 5 4 3 2 1 1 2 2 2 3 3 4 3 2 3 3 4 4 3 2 0 1 2 3 5 7 8
7 6 6 6 6 6 7 7 7 8 7 6 6 5 5 4 3 4 3 1 1 1 1 1 2 3 3 4 3 3 2 3 3 4 5 3 2 1 2 4 5 6 8
Wind_Direction
132 138 139 134 132 128 125 121 117 114 110 106 102 98 94 92 90 91 94 93 93 93 92 90 87 86 84 82 81 80 80 82 82 80 73 66 62 60 59 60 62 57 59
133 139 139 136 133 130 126 123 120 117 114 110 107 103 97 95 94 95 97 95 94 93 91 89 87 87 86 85 83 83 83 83 85 88 81 69 63 62 62 60 60 61 58
133 139 140 137 135 132 129 126 124 121 117 113 110 107 101 98 98 98 97 96 94 92 90 89 88 88 87 86 85 83 77 67 62 73 83 73 64 62 63 61 60 59 58
134 141 142 139 137 134 132 130 128 124 119 115 112 110 106 102 100 99 98 96 94 92 91 90 89 90 89 87 85 81 67 49 47 66 75 70 63 61 61 59 60 60 58
135 142 140 141 138 136 134 132 129 125 121 118 114 112 110 107 103 101 100 98 95 94 93 93 92 91 91 88 83 73 51 33 48 73 79 73 64 63 61 60 60 60 59
137 136 140 142 140 138 137 134 131 126 123 121 118 117 113 110 107 105 104 102 100 97 96 95 93 93 92 88 78 60 37 31 67 75 73 71 65 65 63 62 61 60 58
135 134 144 142 142 140 139 136 132 129 127 125 122 120 118 114 112 110 109 107 104 102 99 97 95 94 92 87 74 49 31 38 78 79 75 70 68 67 65 63 62 60 58
132 136 145 144 143 141 139 136 134 133 131 130 128 124 121 119 117 115 114 113 109 105 101 100 98 96 94 87 71 44 31 39 75 87 85 75 71 70 68 66 63 61 59
132 138 144 146 144 142 140 138 136 134 133 131 130 126 123 123 123 122 119 118 115 111 106 103 103 101 97 90 73 47 25 21 61 90 90 82 75 71 70 68 66 63 61
135 141 148 151 149 146 142 140 137 135 134 130 130 130 128 129 130 130 125 122 119 117 113 109 109 110 109 104 87 17 335 326 72 97 97 93 83 75 73 69 67 66 64
142 147 152 155 155 152 148 144 139 139 138 134 135 140 141 143 143 142 132 130 127 126 124 123 125 132 139 148 170 275 299 296 97 100 107 109 98 85 78 75 72 70 68
149 153 156 157 156 153 149 150 150 150 152 153 151 160 172 164 150 138 137 139 141 142 142 149 159 175 189 195 205 237 266 258 137 127 131 130 121 108 97 92 87 82 76
157 158 159 156 154 149 150 160 160 159 169 176 163 178 179 139 131 137 146 152 158 163 170 180 195 216 223 202 194 224 244 358 44 121 144 146 150 165 184 181 166 151 125
164 162 160 155 153 152 155 160 157 158 174 169 165 177 163 146 153 161 165 174 179 188 187 190 212 219 221 206 218 238 222 242 260 130 158 168 176 197 220 225 220 217 211
168 167 163 158 155 155 153 157 161 158 167 160 161 170 160 151 166 166 169 168 183 183 175 201 224 203 204 231 234 245 281 274 265 222 191 191 197 207 222 234 235 232 229
173 168 164 162 157 155 155 159 163 160 163 153 157 172 166 165 170 160 172 166 186 179 182 201 225 191 209 242 275 264 250 250 243 241 212 207 211 216 223 232 239 241 240
171 170 171 168 164 164 165 169 164 159 164 156 164 180 176 175 165 160 178 167 185 188 195 208 243 212 229 227 271 271 261 259 254 250 239 221 218 222 228 232 239 245 247
163 168 174 177 173 171 169 168 166 169 170 163 167 179 182 183 170 169 180 184 195 195 191 188 221 220 230 224 245 257 253 250 259 264 256 237 223 221 225 230 235 240 247
166 168 170 172 175 175 173 170 172 173 170 166 168 175 181 184 176 174 186 197 199 192 186 192 207 216 234 242 255 262 263 253 243 253 257 255 240 224 216 224 231 237 245
169 168 166 170 176 175 170 166 165 171 168 165 164 170 177 180 180 182 188 200 197 180 189 198 211 225 232 241 267 270 262 258 245 237 240 245 248 235 222 214 221 232 242
169 169 169 171 174 169 166 171 172 181 172 164 164 172 179 181 185 186 185 200 197 187 197 208 208 220 231 230 259 280 267 250 241 233 220 219 231 213 169 154 144 151 203
172 175 170 173 173 170 171 173 171 168 169 170 164 177 182 181 183 188 192 193 192 193 207 217 212 209 223 201 193 244 293 298 267 229 189 172 141 92 98 94 80 67 59
172 175 174 173 171 169 164 157 151 151 154 167 176 179 183 181 183 187 195 199 200 198 209 216 211 205 223 229 204 201 227 255 319 333 171 122 113 94 85 82 72 60 56
174 168 171 170 166 165 160 161 163 167 177 183 174 173 162 164 164 169 179 188 194 205 218 226 220 223 220 235 239 228 224 222 236 285 312 86 98 89 79 75 70 64 59
164 162 167 165 167 167 166 168 173 172 175 164 154 156 161 155 149 151 162 175 191 202 218 229 238 240 229 228 225 228 243 247 227 228 249 241 86 62 70 66 70 66 63
150 151 159 164 167 165 165 168 176 176 167 162 162 164 164 156 150 140 142 141 128 128 216 237 244 247 243 242 237 224 212 220 219 220 234 227 206 149 74 54 59 67 68
Height
1522 1526 1529 1533 1536 1538 1541 1543 1544 1545 1546 1547 1547 1548 1549 1550 1550 1551 1552 1554 1555 1556 1557 1558 1559 1559 1560 1561 1561 1562 1563 1563 1564 1564 1564 1564 1564 1563 1563 1563 1563 1563 1563
1520 1525 1529 1533 1536 1539 1541 1543 1545 1546 1547 1548 1549 1550 1551 1552 1553 1554 1554 1556 1557 1558 1559 1559 1560 1561 1562 1563 1564 1565 1565 1566 1566 1566 1567 1567 1566 1566 1566 1566 1566 1565 1565
1520 1525 1530 1534 1537 1540 1542 1544 1546 1547 1548 1550 1551 1552 1553 1554 1555 1556 1557 1558 1559 1560 1560 1561 1562 1563 1564 1565 1566 1567 1568 1569 1569 1569 1569 1569 1569 1569 1568 1568 1568 1568 1568
1521 1526 1530 1534 1537 1540 1543 1545 1547 1548 1550 1551 1552 1553 1555 1556 1557 1558 1559 1560 1561 1562 1563 1564 1565 1566 1567 1568 1569 1570 1571 1571 1572 1572 1572 1571 1571 1571 1571 1570 1570 1570 1570
1523 1527 1531 1535 1538 1541 1544 1546 1548 1549 1551 1552 1554 1555 1556 1558 1559 1560 1561 1562 1563 1564 1565 1566 1567 1568 1569 1570 1571 1572 1573 1573 1574 1574 1573 1573 1573 1573 1573 1572 1572 1572 1571
1524 1528 1532 1535 1539 1542 1545 1547 1549 1551 1552 1554 1555 1557 1558 1560 1561 1562 1563 1564 1565 1566 1568 1568 1569 1571 1572 1573 1574 1575 1575 1575 1575 1575 1575 1575 1575 1575 1574 1574 1574 1573 1573
1525 1528 1533 1536 1540 1543 1545 1548 1550 1552 1553 1555 1557 1559 1560 1561 1563 1564 1565 1566 1567 1569 1570 1571 1572 1573 1574 1575 1576 1576 1577 1577 1577 1577 1577 1577 1577 1576 1576 1575 1575 1575 1574
1526 1529 1534 1537 1541 1544 1546 1549 1551 1552 1554 1556 1558 1560 1562 1563 1564 1565 1567 1568 1570 1571 1572 1573 1574 1575 1576 1577 1578 1578 1579 1579 1579 1579 1579 1579 1578 1578 1577 1577 1576 1576 1575
1527 1530 1534 1538 1541 1544 1547 1549 1551 1553 1555 1558 1560 1561 1563 1564 1566 1567 1569 1570 1572 1573 1574 1575 1576 1577 1578 1579 1579 1580 1580 1580 1580 1580 1580 1580 1580 1579 1579 1578 1577 1577 1576
1528 1531 1535 1538 1541 1545 1547 1550 1552 1554 1556 1558 1560 1562 1564 1566 1567 1569 1570 1572 1573 1574 1575 1576 1577 1578 1579 1580 1581 1581 1582 1582 1582 1581 1581 1581 1581 1580 1580 1579 1578 1578 1577
1529 1532 1535 1539 1542 1545 1548 1550 1552 1555 1557 1559 1561 1563 1565 1567 1568 1569 1571 1572 1574 1575 1576 1577 1578 1579 1580 1581 1582 1582 1583 1583 1583 1583 1582 1582 1581 1581 1580 1580 1579 1578 1578
1529 1532 1536 1539 1542 1545 1547 1550 1552 1555 1557 1560 1562 1564 1566 1567 1569 1570 1572 1573 1574 1576 1577 1578 1579 1580 1580 1581 1582 1583 1583 1583 1583 1583 1582 1582 1582 1581 1580 1580 1579 1578 1578
1528 1532 1536 1539 1542 1545 1547 1550 1552 1555 1557 1560 1562 1564 1566 1568 1569 1571 1572 1573 1575 1576 1577 1578 1579 1580 1580 1581 1581 1582 1582 1583 1583 1582 1582 1582 1581 1581 1580 1579 1579 1578 1578
1528 1531 1535 1539 1542 1544 1547 1550 1553 1555 1557 1560 1562 1564 1566 1568 1569 1570 1572 1573 1574 1575 1576 1578 1578 1579 1580 1581 1582 1582 1582 1582 1582 1582 1581 1581 1580 1580 1579 1579 1578 1578 1577
1526 1530 1534 1537 1541 1544 1547 1550 1553 1555 1557 1560 1562 1564 1566 1567 1569 1570 1571 1572 1574 1575 1576 1577 1578 1579 1580 1581 1581 1581 1581 1581 1581 1580 1580 1579 1579 1579 1578 1577 1577 1576 1576
1525 1529 1532 1536 1539 1543 1546 1549 1552 1554 1557 1559 1561 1563 1565 1566 1568 1569 1571 1572 1573 1574 1575 1576 1577 1578 1578 1579 1579 1579 1579 1579 1579 1579 1578 1578 1577 1577 1576 1576 1575 1574 1574
1523 1527 1530 1534 1538 1541 1544 1548 1551 1553 1555 1557 1559 1561 1563 1565 1566 1568 1569 1570 1572 1573 1574 1575 1576 1576 1577 1577 1577 1577 1577 1577 1577 1577 1576 1576 1575 1575 1574 1574 1573 1572 1572
1521 1524 1528 1532 1535 1539 1542 1546 1549 1551 1554 1556 1558 1560 1561 1563 1564 1566 1567 1569 1570 1571 1572 1573 1574 1574 1575 1575 1575 1575 1575 1574 1574 1574 1574 1573 1573 1572 1572 1571 1571 1570 1569
1519 1522 1525 1529 1532 1536 1540 1543 1546 1549 1552 1554 1556 1557 1559 1561 1562 1564 1565 1567 1568 1569 1570 1570 1571 1572 1572 1572 1572 1572 1572 1571 1571 1571 1571 1571 1570 1569 1569 1568 1568 1567 1567
1516 1520 1522 1526 1530 1533 1537 1540 1543 1546 1549 1551 1553 1555 1557 1559 1560 1561 1563 1564 1565 1566 1567 1568 1568 1569 1569 1569 1569 1569 1568 1568 1568 1567 1567 1567 1567 1566 1566 1565 1564 1564 1563
1514 1517 1520 1523 1526 1530 1533 1536 1539 1542 1545 1548 1550 1552 1554 1556 1557 1559 1560 1561 1562 1563 1564 1565 1565 1566 1566 1566 1566 1565 1564 1564 1564 1563 1563 1563 1563 1563 1562 1562 1561 1561 1560
1510 1514 1517 1520 1523 1526 1529 1532 1536 1539 1542 1545 1547 1549 1551 1553 1554 1556 1557 1558 1559 1560 1561 1561 1562 1562 1563 1563 1563 1562 1561 1561 1559 1559 1560 1560 1560 1560 1559 1559 1558 1557 1557
1507 1510 1513 1516 1520 1523 1526 1529 1532 1536 1539 1541 1543 1545 1547 1549 1551 1552 1553 1555 1556 1556 1557 1558 1558 1558 1559 1559 1560 1560 1559 1557 1557 1557 1557 1557 1556 1556 1556 1555 1554 1554 1553
1503 1507 1510 1513 1516 1519 1522 1525 1528 1530 1533 1536 1539 1541 1543 1545 1547 1548 1549 1550 1551 1552 1553 1553 1554 1554 1554 1554 1555 1555 1555 1555 1555 1553 1553 1553 1553 1552 1552 1551 1550 1550 1549
1499 1503 1507 1510 1513 1516 1519 1521 1524 1527 1530 1533 1535 1537 1539 1541 1542 1544 1545 1546 1547 1548 1548 1549 1549 1549 1549 1549 1549 1549 1550 1550 1550 1550 1549 1549 1549 1548 1548 1547 1546 1546 1545
1495 1498 1502 1506 1509 1512 1515 1518 1520 1523 1526 1528 1531 1532 1534 1536 1538 1539 1541 1542 1542 1543 1543 1544 1544 1544 1544 1544 1544 1544 1544 1544 1544 1545 1544 1544 1544 1544 1544 1543 1542 1541 1540